sat.trackr.live / text

‹ back to catalog

TIANQI-34

NORAD 62366 · 2024-245B

PAYLOAD ACTIVE UNKNOWN

§ Identity

Operator
Country
PRC
Launch date
2024-12-19
Launch site
YSLA
Launch vehicle
Mass (kg)
RCS (m²)

External: N2YO · Heavens-Above · Gunter

§ Orbital elements

Epoch: 2026-05-25T03:46:31.253952Z

Period
102.92 min
Inclination
44.9808°
Eccentricity
0.0005500
Mean motion
13.99178895 rev/d
Perigee alt
892.6 km
Apogee alt
900.6 km
Semi-major
7,274.8 km
B*
1.2296e-4
RAAN
64.2017°
Arg perigee
283.2839°
Mean anomaly
76.7380°
Rev number
7,310

§ Raw data

TIANQI-341 62366U 24245B   26145.15730618  .00000051  00000+0  12296-3 0  99972 62366  44.9808  64.2017 0005500 283.2839  76.7380 13.99178895 73105

JSON: /api/v1/satellites/62366 · /tle

For live sub-satellite position, see the globe view (requires WebGL).

§ Visibility from observer

Set your observer location to see the next 7 days of passes ≥ 10°. The values pass through the URL so the page stays shareable.

No JS? Fill the form by hand. The geolocation button needs JavaScript.